Hourly Weather Luk'yanivs'ke

Today, 7 May, Friday

Time Temperature Precipitation Wind Pressure Humidity
00:00 +11°C° 0 mm 3 mps 752 mmHg 85%
01:00 +11°C° 0 mm 3 mps 752 mmHg 86%
02:00 +11°C° 0 mm 3 mps 752 mmHg 87%
03:00 +11°C° 0 mm 3 mps 752 mmHg 89%
04:00 +10°C° 0 mm 3 mps 753 mmHg 90%
05:00 +10°C° 0 mm 3 mps 753 mmHg 91%
06:00 +11°C° 0 mm 3 mps 753 mmHg 81%
07:00 +13°C° 0 mm 3 mps 754 mmHg 70%
08:00 +14°C° 0 mm 3 mps 754 mmHg 60%
09:00 +16°C° 0 mm 2 mps 754 mmHg 54%
10:00 +17°C° 0 mm 2 mps 754 mmHg 48%
11:00 +20°C° 0 mm 1 mps 754 mmHg 42%
12:00 +20°C° 0 mm 1 mps 754 mmHg 41%
13:00 +20°C° 0 mm 2 mps 754 mmHg 39%
14:00 +20°C° 0 mm 2 mps 754 mmHg 37%
15:00 +20°C° 0 mm 2 mps 754 mmHg 37%
16:00 +20°C° 0 mm 2 mps 753 mmHg 38%
17:00 +20°C° 0 mm 2 mps 753 mmHg 38%
18:00 +18°C° 0 mm 3 mps 753 mmHg 48%
19:00 +17°C° 0 mm 4 mps 753 mmHg 57%
20:00 +14°C° 0 mm 4 mps 753 mmHg 66%
21:00 +14°C° 0 mm 4 mps 753 mmHg 67%
22:00 +13°C° 0 mm 5 mps 753 mmHg 69%
23:00 +13°C° 0 mm 5 mps 752 mmHg 71%

Tomorrow, 8 May, Saturday

Time Temperature Precipitation Wind Pressure Humidity
00:00 +13°C° 0 mm 5 mps 752 mmHg 71%
01:00 +13°C° 0 mm 5 mps 752 mmHg 72%
02:00 +13°C° 0 mm 4 mps 752 mmHg 72%
03:00 +13°C° 0.1 mm 5 mps 752 mmHg 75%
04:00 +13°C° 0.1 mm 5 mps 751 mmHg 79%
05:00 +12°C° 0.1 mm 5 mps 751 mmHg 82%
06:00 +13°C° 0.2 mm 5 mps 751 mmHg 80%
07:00 +14°C° 0.2 mm 5 mps 751 mmHg 78%
08:00 +15°C° 0.2 mm 5 mps 750 mmHg 77%
09:00 +16°C° 0 mm 6 mps 750 mmHg 71%
10:00 +17°C° 0 mm 6 mps 750 mmHg 65%
11:00 +19°C° 0 mm 6 mps 750 mmHg 59%
12:00 +17°C° 1.1 mm 6 mps 750 mmHg 68%
13:00 +16°C° 1.1 mm 5 mps 750 mmHg 78%
14:00 +15°C° 1.1 mm 5 mps 750 mmHg 87%
15:00 +14°C° 0.9 mm 5 mps 751 mmHg 88%
16:00 +13°C° 0.9 mm 6 mps 751 mmHg 89%
17:00 +11°C° 0.9 mm 6 mps 751 mmHg 90%
18:00 +10°C° 0.9 mm 6 mps 752 mmHg 88%
19:00 +10°C° 0.9 mm 6 mps 752 mmHg 87%
20:00 +9°C° 0.9 mm 6 mps 753 mmHg 85%
21:00 +8°C° 0.5 mm 6 mps 753 mmHg 82%
22:00 +8°C° 0.5 mm 6 mps 753 mmHg 78%
23:00 +8°C° 0.5 mm 6 mps 753 mmHg 75%

Day after tomorrow, 9 May, Sunday

Time Temperature Precipitation Wind Pressure Humidity
00:00 +7°C° 0.1 mm 6 mps 754 mmHg 77%
01:00 +5°C° 0.1 mm 6 mps 754 mmHg 79%
02:00 +5°C° 0.1 mm 7 mps 754 mmHg 81%
03:00 +4°C° 0 mm 6 mps 755 mmHg 82%
04:00 +4°C° 0 mm 6 mps 755 mmHg 82%
05:00 +4°C° 0 mm 6 mps 756 mmHg 83%
06:00 +5°C° 0 mm 7 mps 756 mmHg 75%
07:00 +6°C° 0 mm 7 mps 757 mmHg 68%
08:00 +7°C° 0 mm 8 mps 757 mmHg 61%
09:00 +9°C° 0 mm 8 mps 757 mmHg 55%
10:00 +11°C° 0 mm 8 mps 757 mmHg 49%
11:00 +12°C° 0 mm 7 mps 758 mmHg 43%
12:00 +12°C° 0 mm 8 mps 758 mmHg 41%
13:00 +13°C° 0 mm 8 mps 758 mmHg 39%
14:00 +13°C° 0 mm 8 mps 758 mmHg 37%
15:00 +13°C° 0 mm 8 mps 758 mmHg 39%
16:00 +14°C° 0 mm 7 mps 759 mmHg 42%
17:00 +14°C° 0 mm 7 mps 759 mmHg 44%
18:00 +11°C° 0 mm 6 mps 760 mmHg 49%
19:00 +10°C° 0 mm 5 mps 760 mmHg 54%
20:00 +8°C° 0 mm 4 mps 761 mmHg 59%
21:00 +7°C° 0 mm 4 mps 761 mmHg 61%
22:00 +7°C° 0 mm 4 mps 761 mmHg 64%
23:00 +6°C° 0 mm 4 mps 761 mmHg 66%

10 May, Monday

Time Temperature Precipitation Wind Pressure Humidity
00:00 +6°C° 0 mm 4 mps 761 mmHg 67%
01:00 +6°C° 0 mm 4 mps 761 mmHg 69%
02:00 +5°C° 0 mm 4 mps 761 mmHg 70%
03:00 +5°C° 0 mm 4 mps 761 mmHg 70%
04:00 +5°C° 0 mm 4 mps 761 mmHg 71%
05:00 +5°C° 0 mm 4 mps 762 mmHg 71%
06:00 +7°C° 0 mm 5 mps 761 mmHg 64%
07:00 +9°C° 0 mm 6 mps 761 mmHg 57%
08:00 +11°C° 0 mm 6 mps 761 mmHg 50%
09:00 +11°C° 0 mm 7 mps 761 mmHg 47%
10:00 +12°C° 0 mm 7 mps 760 mmHg 43%
11:00 +14°C° 0 mm 7 mps 760 mmHg 39%
12:00 +13°C° 0 mm 8 mps 759 mmHg 40%
13:00 +13°C° 0 mm 8 mps 759 mmHg 40%
14:00 +15°C° 0 mm 8 mps 759 mmHg 41%
15:00 +13°C° 0 mm 8 mps 758 mmHg 45%
16:00 +13°C° 0 mm 8 mps 758 mmHg 49%
17:00 +12°C° 0 mm 8 mps 758 mmHg 53%
18:00 +11°C° 0.1 mm 8 mps 757 mmHg 58%
19:00 +10°C° 0.1 mm 8 mps 757 mmHg 64%
20:00 +10°C° 0.1 mm 8 mps 756 mmHg 69%
21:00 +9°C° 0.2 mm 8 mps 756 mmHg 73%
22:00 +9°C° 0.2 mm 8 mps 755 mmHg 76%
23:00 +9°C° 0.2 mm 8 mps 755 mmHg 80%

11 May, Tuesday

Time Temperature Precipitation Wind Pressure Humidity
00:00 +9°C° 0.1 mm 8 mps 755 mmHg 81%
01:00 +10°C° 0.1 mm 8 mps 754 mmHg 82%
02:00 +10°C° 0.1 mm 8 mps 754 mmHg 83%
03:00 +10°C° 0 mm 7 mps 754 mmHg 84%
04:00 +10°C° 0 mm 7 mps 754 mmHg 86%
05:00 +10°C° 0 mm 7 mps 753 mmHg 88%
06:00 +11°C° 0 mm 7 mps 753 mmHg 86%
07:00 +12°C° 0 mm 7 mps 753 mmHg 84%
08:00 +12°C° 0 mm 7 mps 753 mmHg 81%
09:00 +11°C° 0.1 mm 7 mps 753 mmHg 83%
10:00 +11°C° 0.1 mm 7 mps 753 mmHg 85%
11:00 +10°C° 0.1 mm 7 mps 753 mmHg 87%
12:00 +11°C° 0.1 mm 8 mps 753 mmHg 77%
13:00 +11°C° 0.1 mm 8 mps 753 mmHg 68%
14:00 +12°C° 0.1 mm 8 mps 754 mmHg 59%
15:00 +11°C° 0.1 mm 9 mps 754 mmHg 65%
16:00 +10°C° 0.1 mm 9 mps 754 mmHg 71%
17:00 +8°C° 0.1 mm 10 mps 755 mmHg 77%
18:00 +8°C° 0.1 mm 10 mps 755 mmHg 79%
19:00 +7°C° 0.1 mm 11 mps 755 mmHg 80%
20:00 +6°C° 0.1 mm 11 mps 755 mmHg 82%
21:00 +7°C° 0.1 mm 11 mps 755 mmHg 82%
22:00 +7°C° 0.1 mm 11 mps 755 mmHg 83%
23:00 +7°C° 0.1 mm 11 mps 755 mmHg 83%

12 May, Wednesday

Time Temperature Precipitation Wind Pressure Humidity
00:00 +7°C° 0.1 mm 10 mps 754 mmHg 84%
01:00 +7°C° 0.1 mm 9 mps 754 mmHg 86%
02:00 +7°C° 0.1 mm 8 mps 754 mmHg 87%
03:00 +6°C° 0.2 mm 8 mps 754 mmHg 87%
04:00 +6°C° 0.2 mm 8 mps 754 mmHg 88%
05:00 +6°C° 0.2 mm 8 mps 753 mmHg 88%
06:00 +7°C° 0.3 mm 8 mps 753 mmHg 88%
07:00 +7°C° 0.3 mm 8 mps 753 mmHg 89%
08:00 +8°C° 0.3 mm 7 mps 753 mmHg 89%
09:00 +8°C° 0.3 mm 7 mps 753 mmHg 88%
10:00 +8°C° 0.3 mm 7 mps 753 mmHg 88%
11:00 +9°C° 0.3 mm 7 mps 753 mmHg 87%
12:00 +9°C° 1.2 mm 7 mps 752 mmHg 87%
13:00 +9°C° 1.2 mm 8 mps 752 mmHg 86%
14:00 +10°C° 1.2 mm 8 mps 751 mmHg 86%
15:00 +10°C° 0.5 mm 7 mps 751 mmHg 83%
16:00 +11°C° 0.5 mm 7 mps 751 mmHg 81%
17:00 +13°C° 0.5 mm 6 mps 751 mmHg 78%
18:00 +11°C° 0.3 mm 6 mps 751 mmHg 83%
19:00 +10°C° 0.3 mm 5 mps 751 mmHg 88%
20:00 +10°C° 0.3 mm 4 mps 751 mmHg 92%
21:00 +10°C° 0 mm 4 mps 751 mmHg 93%
22:00 +9°C° 0 mm 3 mps 751 mmHg 94%
23:00 +9°C° 0 mm 3 mps 751 mmHg 95%
Show more

We Need Your Consent

Meteoprog and our Service Providers may store and access personal data such as cookies, device identifiers or other similar technologies on your device and process such data to personalise content and ads, as well as provide social media features and to analyse the traffic.

  • Store and/or access information on your device

    Cookies, device identifiers or other information can be stored or accessed on your device for the purposes indicated above.

  • Personalised ads and content, ad and content measurement, audience insights, and products development

    Ads and content can be personalised based on a profile. More data can be added to better personalise ads and content. Ad and content performance can be measured. Insights about the audience who saw the ads and content can be derived. Such data can be used to develop or improve user’s experience, systems and software.

By clicking ‘I Agree’ you will allow the use of indicated cookies, device identifiers, web beacons or other similar technologies. Your settings can be changed in the browser on your device.

For certain purposes, legitimate interests may be relied on, rather than consent. You can read more about this in our Privacy and Cookie Policy.